VK1ET-13 Weather Reports


Display with metric or nautical units.
time (UTC)temp
F
wind
direction
speed
MPH
gust
MPH
rain 1hr
in
rain 24hr
in
rain mn
in
humidity
%
barometer
mb
20260906221527 48 350 4.0 9.0 0.00 0.00 0.00 94 1022.3
20260906220532 48 351 4.0 8.0 0.00 0.00 0.00 97 1022.3
20260906215518 47 338 4.0 9.0 0.00 0.00 0.00 97 1022.3
20260906214522 47 9 2.0 6.0 0.00 0.00 0.00 97 1022.1
20260906213527 46 16 4.0 7.0 0.00 0.00 0.00 97 1022.1
20260906212533 47 18 3.0 8.0 0.00 0.00 0.00 97 1022.2
20260906211520 47 31 3.0 5.0 0.00 0.00 0.00 97 1022.1
20260906210528 47 356 2.0 5.0 0.00 0.00 0.00 97 1022.2
20260906205516 47 5 2.0 4.0 0.00 0.00 0.00 97 1022.1
20260906204533 47 276 1.0 3.0 0.00 0.00 0.00 97 1022.3
20260906203533 47 287 1.0 3.0 0.00 0.00 0.00 97 1022.0
20260906202521 47 3 1.0 3.0 0.00 0.00 0.00 96 1021.9
20260906201529 47 38 1.0 3.0 0.00 0.00 0.00 96 1021.7
20260906200536 47 257 0.0 2.0 0.00 0.00 0.00 96 1021.7
20260906195521 47 265 0.0 2.0 0.00 0.00 0.00 96 1021.6
20260906194528 47 342 1.0 3.0 0.00 0.00 0.00 96 1021.5
20260906193533 47 354 1.0 3.0 0.00 0.00 0.00 96 1021.5
20260906192519 47 344 1.0 3.0 0.00 0.00 0.00 95 1021.4
20260906191527 47 7 2.0 4.0 0.00 0.00 0.00 95 1021.5
20260906190540 47 336 1.0 2.0 0.00 0.00 0.00 95 1021.5
20260906185527 47 4 1.0 3.0 0.00 0.00 0.00 95 1021.4
20260906184528 47 16 1.0 2.0 0.00 0.00 0.00 95 1021.5
20260906183534 47 30 1.0 4.0 0.00 0.00 0.00 95 1021.4
20260906182522 47 325 1.0 4.0 0.00 0.00 0.00 95 1021.4
20260906181530 46 281 2.0 3.0 0.00 0.00 0.00 95 1021.3
20260906180519 46 295 1.0 3.0 0.00 0.00 0.00 95 1021.4
20260906175528 46 319 2.0 5.0 0.00 0.00 0.00 95 1021.1
20260906174536 46 356 1.0 4.0 0.00 0.00 0.00 94 1021.0
20260906173522 46 351 2.0 4.0 0.00 0.00 0.00 94 1021.0
20260906172530 47 30 1.0 3.0 0.00 0.00 0.00 94 1021.0
20260906171519 47 17 1.0 2.0 0.00 0.00 0.00 94 1021.2
20260906170529 47 263 1.0 3.0 0.00 0.00 0.00 94 1021.2
20260906165535 47 354 0.0 2.0 0.00 0.00 0.00 95 1021.3
20260906164529 47 291 0.0 2.0 0.00 0.00 0.00 95 1021.4
20260906163527 47 190 1.0 2.0 0.00 0.00 0.00 96 1021.4
20260906162532 47 128 1.0 2.0 0.00 0.00 0.00 96 1021.6
20260906161526 47 190 1.0 3.0 0.00 0.00 0.00 96 1021.4
20260906160534 47 148 1.0 2.0 0.00 0.00 0.00 96 1021.6
20260906155550 46 144 1.0 2.0 0.00 0.00 0.00 96 1021.6
20260906154525 46 178 1.0 3.0 0.00 0.00 0.00 96 1021.7
20260906153531 46 140 1.0 3.0 0.00 0.00 0.00 96 1022.0
20260906152533 46 69 1.0 2.0 0.00 0.00 0.00 96 1022.2
20260906151528 46 5 2.0 4.0 0.00 0.00 0.00 96 1022.2
20260906150517 46 60 1.0 3.0 0.00 0.00 0.00 96 1022.5
20260906145525 46 219 1.0 2.0 0.00 0.00 0.00 96 1022.6
20260906144534 46 194 2.0 4.0 0.00 0.00 0.00 96 1022.4
20260906143522 46 176 2.0 4.0 0.00 0.00 0.00 95 1022.4
20260906142538 46 127 2.0 4.0 0.00 0.00 0.00 96 1022.6
20260906141518 46 179 2.0 4.0 0.00 0.00 0.00 95 1022.7
20260906140526 46 180 3.0 5.0 0.00 0.00 0.00 95 1022.5
20260906135541 46 181 5.0 6.0 0.00 0.00 0.00 95 1022.4
20260906134522 47 182 4.0 7.0 0.00 0.00 0.00 94 1022.5
20260906133530 47 184 2.0 4.0 0.00 0.00 0.00 93 1022.4
20260906132516 47 191 2.0 4.0 0.00 0.00 0.00 93 1022.6
20260906131523 47 180 1.0 4.0 0.00 0.00 0.00 93 1022.7
20260906130530 47 175 0.0 4.0 0.00 0.00 0.00 93 1022.7
20260906125517 47 0.0 0.0 0.00 0.00 0.00 93 1022.8
20260906124523 47 0.0 0.0 0.00 0.00 0.00 93 1022.9
20260906123531 47 301 0.0 1.0 0.00 0.00 0.00 93 1022.9
20260906122517 47 0.0 0.0 0.00 0.00 0.00 93 1022.9
20260906121524 47 5 0.0 2.0 0.00 0.00 0.00 92 1022.9
20260906120545 47 130 0.0 1.0 0.00 0.00 0.00 92 1022.9
20260906115518 47 0.0 0.0 0.00 0.00 0.00 92 1022.9
20260906114523 47 227 0.0 1.0 0.00 0.00 0.00 91 1022.7
20260906113529 48 350 0.0 1.0 0.00 0.00 0.00 91 1022.5
20260906112537 48 10 0.0 2.0 0.00 0.00 0.00 90 1022.4
20260906111527 48 342 0.0 1.0 0.00 0.00 0.00 90 1022.3
20260906110528 48 346 0.0 2.0 0.00 0.00 0.00 90 1022.3
20260906105534 48 43 0.0 2.0 0.00 0.00 0.00 90 1022.1
20260906104519 49 170 1.0 2.0 0.00 0.00 0.00 89 1022.1
20260906103525 49 147 0.0 2.0 0.00 0.00 0.00 89 1021.9
20260906102531 49 11 2.0 2.0 0.00 0.00 0.00 88 1021.7
20260906101517 50 1 2.0 4.0 0.00 0.00 0.00 88 1021.7
20260906100524 50 4 2.0 4.0 0.00 0.00 0.00 88 1021.6
20260906095531 50 20 2.0 4.0 0.00 0.00 0.00 88 1021.4
20260906094536 50 5 2.0 5.0 0.00 0.00 0.00 87 1021.5
20260906093521 50 5 2.0 4.0 0.00 0.00 0.00 87 1021.5
20260906092528 51 6 3.0 5.0 0.00 0.00 0.00 86 1021.2
20260906091542 51 358 3.0 8.0 0.00 0.00 0.00 86 1021.2
20260906090522 51 1 2.0 5.0 0.00 0.00 0.00 85 1021.2
20260906085528 51 357 4.0 6.0 0.00 0.00 0.00 85 1020.9
20260906084534 52 0 4.0 7.0 0.00 0.00 0.00 84 1020.9
20260906083520 52 357 4.0 7.0 0.00 0.00 0.00 84 1020.8
20260906082527 52 1 4.0 8.0 0.00 0.00 0.00 83 1020.5
20260906081541 53 356 4.0 9.0 0.00 0.00 0.00 83 1020.5
20260906080528 53 352 5.0 10.0 0.00 0.00 0.00 82 1020.4
20260906075527 53 353 4.0 7.0 0.00 0.00 0.00 82 1020.2
20260906074533 54 357 5.0 9.0 0.00 0.00 0.00 80 1020.3
20260906073525 55 353 4.0 9.0 0.00 0.00 0.00 79 1019.9
20260906072524 55 354 4.0 8.0 0.00 0.00 0.00 78 1019.8
20260906071531 56 345 4.0 9.0 0.00 0.00 0.00 76 1019.6
20260906070517 56 354 5.0 9.0 0.00 0.00 0.00 75 1019.5
20260906065523 57 347 4.0 8.0 0.00 0.00 0.00 74 1019.5
20260906064528 57 350 4.0 6.0 0.00 0.00 0.00 73 1019.4
20260906063535 57 338 5.0 11.0 0.00 0.00 0.00 73 1019.4
20260906062520 57 348 6.0 12.0 0.00 0.00 0.00 72 1019.3
20260906061526 57 356 6.0 11.0 0.00 0.00 0.00 72 1019.3
20260906060533 58 357 7.0 13.0 0.00 0.00 0.00 70 1019.5
20260906055518 58 329 7.0 15.0 0.00 0.00 0.00 68 1019.5
20260906054525 59 340 6.0 12.0 0.00 0.00 0.00 66 1019.5
20260906053532 58 330 7.0 12.0 0.00 0.00 0.00 66 1019.6
20260906052517 59 330 7.0 12.0 0.00 0.00 0.00 67 1019.5
20260906051523 59 344 5.0 15.0 0.00 0.00 0.00 67 1019.4
20260906050528 59 345 4.0 13.0 0.00 0.00 0.00 66 1019.2
20260906045535 59 337 7.0 13.0 0.00 0.00 0.00 66 1019.0
20260906044528 60 348 6.0 13.0 0.00 0.00 0.00 64 1019.0
20260906043533 60 345 8.0 15.0 0.00 0.00 0.00 65 1018.9
20260906042533 59 316 4.0 9.0 0.00 0.00 0.00 67 1018.6
20260906041519 58 333 5.0 15.0 0.00 0.00 0.00 68 1018.7
20260906040526 58 346 6.0 12.0 0.00 0.00 0.00 68 1018.5
20260906035547 58 334 5.0 13.0 0.00 0.00 0.00 68 1018.5
20260906034519 58 356 5.0 12.0 0.00 0.00 0.00 69 1018.3
20260906033525 58 359 7.0 13.0 0.00 0.00 0.00 68 1018.2
20260906032538 59 360 7.0 14.0 0.00 0.00 0.00 67 1018.1
20260906031519 58 350 5.0 11.0 0.00 0.00 0.00 68 1018.0
20260906030525 58 351 5.0 10.0 0.00 0.00 0.00 66 1018.0
20260906025530 57 336 6.0 15.0 0.00 0.00 0.00 67 1018.2
20260906024536 58 350 5.0 13.0 0.00 0.00 0.00 66 1018.1
20260906023521 57 355 6.0 13.0 0.00 0.00 0.00 66 1018.1
20260906022526 57 355 6.0 10.0 0.00 0.00 0.00 67 1017.9
20260906021532 58 349 7.0 12.0 0.00 0.00 0.00 66 1018.0
20260906020525 58 343 6.0 13.0 0.00 0.00 0.00 65 1017.9
20260906015525 57 331 7.0 14.0 0.00 0.00 0.00 64 1017.9
20260906014530 57 321 6.0 13.0 0.00 0.00 0.00 66 1017.9
20260906013534 57 340 7.0 15.0 0.00 0.00 0.00 64 1018.0
20260906012526 57 341 5.0 13.0 0.00 0.00 0.00 64 1017.8
20260906011524 57 323 6.0 11.0 0.00 0.00 0.00 64 1017.8
20260906010537 56 344 7.0 13.0 0.00 0.00 0.00 65 1017.9
20260906005543 57 342 5.0 12.0 0.00 0.00 0.00 65 1017.7
20260906004522 56 336 4.0 9.0 0.00 0.00 0.00 65 1017.6
20260906003529 57 268 2.0 6.0 0.00 0.00 0.00 57 1017.5
20260906002534 57 236 5.0 9.0 0.00 0.00 0.00 58 1017.4
20260906001527 56 226 4.0 6.0 0.00 0.00 0.00 59 1017.4
20260906000541 55 236 4.0 7.0 0.00 0.00 0.00 60 1017.5
20260905235533 55 292 5.0 9.0 0.00 0.00 0.00 62 1017.3
20260905234524 54 264 5.0 10.0 0.00 0.00 0.00 63 1017.4
20260905233524 54 244 5.0 11.0 0.00 0.00 0.00 63 1017.2
20260905232530 54 238 5.0 8.0 0.00 0.00 0.00 64 1017.1
20260905231517 53 250 5.0 11.0 0.00 0.00 0.00 65 1017.1
20260905230524 53 266 6.0 10.0 0.00 0.00 0.00 66 1017.1
20260905225530 53 263 5.0 8.0 0.00 0.00 0.00 65 1017.1
20260905224517 52 299 5.0 9.0 0.00 0.00 0.00 67 1016.9
20260905223522 52 286 6.0 11.0 0.00 0.00 0.00 69 1016.9
20260905222535 51 281 6.0 14.0 0.00 0.00 0.00 70 1016.9